Weather observations for the past three days for
Laconia, Laconia Municipal Airport
Metric (Imperial)
Date Time (edt) Wind (kph) Vis. (km) Weather Sky Cond. Temperature (ºC) Relative Humidity Wind Chill (°C) Heat Index (°C) Pressure Precipitation (cm)
Air Dwpt 6 hour altimeter (cm) sea level (mb) 1 hr 3 hr 6 hr
Max. Min.
17 17:56 SW 11 16.09 Overcast OVC055 27.8 18.9 58% 29 76.4 1018.4
17 16:56 SW 17 16.09 Mostly Cloudy FEW046 BKN060 27.8 18.3 56% 29 76.4 1018.3
17 15:56 W 20 G 30 16.09 Partly Cloudy SCT043 27.8 17.8 55% 29 76.4 1018.4
17 14:56 S 17 G 28 16.09 Mostly Cloudy BKN090 27.2 17.8 57% 28 76.4 1018.6
17 13:56 S 11 16.09 Overcast SCT043 OVC100 26.1 17.2 26.1 17.2 58% 27 76.48 1019.6
17 12:56 Vrbl 11 16.09 Overcast OVC050 24.4 16.1 60% 26 76.5 1019.7
17 11:56 Vrbl 11 14.48 Mostly Cloudy BKN055 23.9 15 58% 25 76.5 1019.5
17 10:56 S 11 16.09 A Few Clouds FEW065 23.3 13.9 56% 76.56 1020.3
17 09:56 SW 13 16.09 Fair CLR 21.1 12.8 59% 76.63 1021.3
17 08:56 SW 11 16.09 Fair CLR 17.8 12.8 73% 76.68 1022.3
17 07:56 SW 11 16.09 Fair CLR 17.2 12.8 17.2 14.4 76% 76.71 1022.5
17 06:56 W 11 16.09 Fair CLR 16.1 12.8 81% 76.71 1022.6
17 05:56 W 6 16.09 Fair CLR 15.6 12.2 80% 76.71 1022.5
17 04:56 SW 7 16.09 Fair CLR 15 11.7 81% 76.68 1022.2
17 03:56 SW 9 16.09 A Few Clouds FEW120 15.6 11.1 75% 76.71 1022.6
17 02:56 W 6 16.09 Overcast OVC120 16.1 10.6 70% 76.68 1022.3
17 01:56 W 11 16.09 Overcast OVC120 16.7 10 20 16.1 65% 76.68 1022.3
17 00:56 SW 11 16.09 A Few Clouds FEW120 16.7 9.4 62% 76.71 1022.5
16 23:56 SW 7 16.09 Fair CLR 16.7 9.4 62% 76.68 1022.2
16 22:56 SW 13 16.09 Fair CLR 17.8 8.9 56% 76.68 1022.4
16 21:56 S 11 16.09 Fair CLR 18.3 8.9 54% 76.71 1022.7
16 20:56 S 13 16.09 Fair CLR 18.9 9.4 54% 76.68 1022.4
16 19:56 S 7 16.09 Fair CLR 20 8.9 23.3 20 49% 76.68 1022.3
16 18:56 S 7 16.09 Fair CLR 21.7 7.8 41% 76.68 1022.4
16 17:56 SW 9 16.09 Fair CLR 22.8 6.1 34% 76.68 1022.4
16 16:56 SW 15 16.09 Fair CLR 23.3 6.1 33% 76.71 1022.5
16 15:56 Vrbl 7 16.09 Fair CLR 22.8 4.4 30% 76.71 1022.7
16 14:56 W 11 16.09 Fair CLR 22.8 5 32% 76.76 1023.3
16 13:56 Vrbl 7 16.09 Fair CLR 21.7 4.4 21.7 13.3 32% 76.78 1023.6
16 12:56 Vrbl 11 16.09 Fair CLR 20 4.4 36% 76.84 1024.3
16 11:56 SW 9 16.09 Fair CLR 19.4 5 39% 76.89 1024.9
16 10:56 Vrbl 7 16.09 Fair CLR 18.9 5 40% 76.89 1025.3
16 09:56 NE 9 16.09 Fair CLR 17.8 4.4 41% 76.91 1025.4
16 08:56 W 6 16.09 Fair CLR 16.1 6.7 54% 76.94 1025.7
16 07:56 SW 6 16.09 Fair CLR 13.3 7.8 13.3 6.1 70% 76.91 1025.5
16 06:56 SW 9 16.09 Fair CLR 11.1 7.8 80% 76.89 1025.1
16 05:56 Calm 16.09 Fair CLR 6.7 6.1 96% 76.81 1024.2
16 04:56 Calm 16.09 Fair CLR 6.7 6.1 96% 76.76 1023.3
16 03:56 Calm 16.09 Fair CLR 7.2 6.7 97% 76.68 1022.4
16 02:56 Calm 16.09 Fair CLR 6.7 5.6 93% 76.68 1022.5
16 01:56 Calm 16.09 Fair CLR 8.3 7.2 17.2 7.8 93% 76.66 1021.9
16 00:56 Calm 16.09 Fair CLR 9.4 7.2 86% 76.61 1021.3
15 23:56 Calm 16.09 Fair CLR 10 7.8 86% 76.56 1020.8
15 22:56 Calm 16.09 Fair CLR 12.2 6.7 69% 76.53 1020.4
15 21:56 Calm 16.09 Fair CLR 13.3 6.7 65% 76.48 1019.9
15 20:56 Calm 16.09 Fair CLR 16.1 5 48% 76.45 1019.2
15 19:56 W 7 16.09 Fair CLR 17.8 5 21.7 17.8 43% 76.38 1018.2
15 18:56 W 13 16.09 Fair CLR 19.4 5 39% 76.33 1017.4
15 17:56 NW 22 G 33 16.09 Fair CLR 20 5.6 39% 76.28 1016.7
15 16:56 W 22 G 31 16.09 Fair CLR 21.1 5.6 37% 76.23 1016.2
15 15:56 NW 19 G 26 16.09 Fair CLR 21.1 5.6 37% 76.2 1015.7
15 14:56 N 20 16.09 Fair CLR 21.1 5.6 37% 76.17 1015.5
15 13:56 N 13 G 31 16.09 Fair CLR 20.6 5.6 20.6 16.7 38% 76.17 1015.3
15 12:56 NW 20 G 33 16.09 Fair CLR 20 3.9 35% 76.15 1015.2
15 11:56 NW 30 G 44 16.09 Fair CLR 18.9 3.3 36% 76.12 1014.9
15 10:56 NW 22 G 31 16.09 Fair CLR 18.9 5.6 42% 76.12 1014.7
15 09:56 NW 31 G 50 16.09 Fair CLR 17.8 5 43% 76.12 1014.7
15 08:56 NW 15 G 35 16.09 Fair CLR 18.3 6.1 45% 76.12 1014.6
15 07:56 NW 17 16.09 Fair CLR 16.7 10 17.2 14.4 65% 76.1 1014.5
15 06:56 Vrbl 7 16.09 Overcast BKN080 OVC090 15.6 11.7 78% 76.07 1013.8
15 05:56 Vrbl 6 16.09 A Few Clouds FEW002 15.6 12.2 80% 76.02 1013.4
15 04:56 Calm 16.09 Partly Cloudy SCT080 15 14.4 96% 75.95 1012.2
15 03:56 Calm 16.09 Overcast OVC075 15.6 15.6 100% 75.9 1011.6
15 02:56 Calm 16.09 Mostly Cloudy BKN070 16.1 15 93% 75.87 1011.3
15 01:56 W 6 16.09 Overcast OVC060 16.7 15.6 19.4 16.7 93% 75.87 1011.3 0.18
15 00:56 Calm 16.09 Mostly Cloudy BKN065 17.2 17.2 100% 75.87 1011.3
14 23:56 SW 7 16.09 Overcast OVC060 18.3 17.8 97% 75.9 1011.4
14 22:56 E 7 16.09 Overcast BKN065 BKN080 OVC110 18 0 0% 75.82 1010.7 0.18
14 21:56 Calm 14.48 Mostly Cloudy BKN080 BKN120 18 0 0% 75.84 1011.1 0.03
14 20:56 Calm 16.09 Overcast FEW004 OVC065 19 0 0% 75.77 1009.9 0.15
14 19:56 E 6 16.09 Overcast OVC085 19.4 18.3 26.1 18.9 93% 75.74 1009.5 0.25 0.25
14 18:56 SW 11 16.09 A Few Clouds FEW085 24.4 18.3 69% 25 75.67 1008.6
Date Time (edt) Wind (kph) Vis. (km) Weather Sky Cond. Air Dwpt Max. Min. Relative Humidity Wind Chill (°C) Heat Index (°C) altimeter (cm) sea level (mb) 1 hr 3 hr 6 hr
6 hour
Temperature (ºC) Pressure Precipitation (cm)